Time,TemperatureF,DewpointF,PressureIn,WindDirection,WindDirectionDegrees,WindSpeedMPH,WindSpeedGustMPH,Humidity,HourlyPrecipIn,Conditions,Clouds,dailyrainin,SoftwareType,DateUTC
2013-01-15 00:02:00,43.5,5.0,29.96,ENE,58,8.0,8.0,20,0.00,,,0.00,meteohub,2013-01-15 08:02:00,
2013-01-15 00:07:00,43.7,5.2,29.96,ENE,63,8.0,8.0,20,0.00,,,0.00,meteohub,2013-01-15 08:07:00,
2013-01-15 00:13:00,43.5,5.0,29.96,NE,51,4.0,8.0,20,0.00,,,0.00,meteohub,2013-01-15 08:13:00,
2013-01-15 00:19:00,43.0,4.6,29.96,ENE,57,3.0,8.0,20,0.00,,,0.00,meteohub,2013-01-15 08:19:00,
2013-01-15 00:25:00,42.3,5.2,29.96,ENE,57,0.0,8.0,21,0.00,,,0.00,meteohub,2013-01-15 08:25:00,
2013-01-15 00:31:00,41.7,4.6,29.96,ENE,57,0.0,4.0,21,0.00,,,0.00,meteohub,2013-01-15 08:31:00,
2013-01-15 00:37:00,40.6,3.7,29.96,ENE,57,0.0,0.0,21,0.00,,,0.00,meteohub,2013-01-15 08:37:00,
2013-01-15 00:43:00,40.3,3.4,29.96,NW,320,0.0,0.0,21,0.00,,,0.00,meteohub,2013-01-15 08:43:00,
2013-01-15 00:49:00,39.6,2.8,29.96,NNE,14,0.0,0.0,21,0.00,,,0.00,meteohub,2013-01-15 08:49:00,
2013-01-15 00:55:00,39.2,2.5,29.96,NNE,23,0.0,0.0,21,0.00,,,0.00,meteohub,2013-01-15 08:55:00,
2013-01-15 01:01:00,40.1,3.2,29.96,NE,43,3.0,3.0,21,0.00,,,0.00,meteohub,2013-01-15 09:01:00,
2013-01-15 01:07:00,40.6,3.7,29.96,NE,41,3.0,5.0,21,0.00,,,0.00,meteohub,2013-01-15 09:07:00,
2013-01-15 01:13:00,40.8,3.9,29.96,NE,43,3.0,5.0,21,0.00,,,0.00,meteohub,2013-01-15 09:13:00,
2013-01-15 01:19:00,41.2,4.1,29.96,East,85,6.0,6.0,21,0.00,,,0.00,meteohub,2013-01-15 09:19:00,
2013-01-15 01:25:00,42.1,5.0,29.99,ENE,72,5.0,8.0,21,0.00,,,0.00,meteohub,2013-01-15 09:25:00,
2013-01-15 01:31:00,42.3,5.2,29.99,NE,52,6.0,8.0,21,0.00,,,0.00,meteohub,2013-01-15 09:31:00,
2013-01-15 01:37:00,42.6,5.4,29.99,East,85,6.0,9.0,21,0.00,,,0.00,meteohub,2013-01-15 09:37:00,
2013-01-15 01:43:00,42.8,4.5,29.99,NE,53,7.0,9.0,20,0.00,,,0.00,meteohub,2013-01-15 09:43:00,
2013-01-15 01:49:00,43.3,5.0,29.99,NE,47,5.0,9.0,20,0.00,,,0.00,meteohub,2013-01-15 09:49:00,
2013-01-15 01:55:00,43.2,4.8,29.99,East,84,4.0,9.0,20,0.00,,,0.00,meteohub,2013-01-15 09:55:00,
2013-01-15 02:01:00,44.2,5.7,29.99,SW,229,3.0,8.0,20,0.00,,,0.00,meteohub,2013-01-15 10:01:00,
2013-01-15 02:07:00,42.6,5.4,29.99,SW,229,0.0,8.0,21,0.00,,,0.00,meteohub,2013-01-15 10:07:00,
2013-01-15 02:13:00,41.2,4.1,29.99,North,353,0.0,6.0,21,0.00,,,0.00,meteohub,2013-01-15 10:13:00,
2013-01-15 02:19:00,40.1,3.2,29.99,NE,48,3.0,4.0,21,0.00,,,0.00,meteohub,2013-01-15 10:19:00,
2013-01-15 02:25:00,39.9,3.2,29.99,NNW,348,0.0,4.0,21,0.00,,,0.00,meteohub,2013-01-15 10:25:00,
2013-01-15 02:31:00,39.4,2.7,29.99,NE,38,0.0,4.0,21,0.00,,,0.00,meteohub,2013-01-15 10:31:00,
2013-01-15 02:37:00,39.4,2.7,29.99,NE,40,0.0,2.0,21,0.00,,,0.00,meteohub,2013-01-15 10:37:00,
2013-01-15 02:43:00,39.4,2.7,29.99,ENE,70,0.0,0.0,21,0.00,,,0.00,meteohub,2013-01-15 10:43:00,
2013-01-15 02:49:00,39.2,2.5,29.99,NNW,332,0.0,0.0,21,0.00,,,0.00,meteohub,2013-01-15 10:49:00,
2013-01-15 02:56:00,38.8,2.3,29.99,NNE,31,2.0,5.0,21,0.00,,,0.00,meteohub,2013-01-15 10:56:00,
2013-01-15 03:02:00,38.5,1.9,29.99,North,0,0.0,5.0,21,0.00,,,0.00,meteohub,2013-01-15 11:02:00,
2013-01-15 03:08:00,38.3,1.8,29.99,North,357,0.0,5.0,21,0.00,,,0.00,meteohub,2013-01-15 11:08:00,
2013-01-15 03:14:00,38.3,1.8,29.99,North,0,0.0,3.0,21,0.00,,,0.00,meteohub,2013-01-15 11:14:00,
2013-01-15 03:20:00,38.1,1.6,29.99,North,0,0.0,3.0,21,0.00,,,0.00,meteohub,2013-01-15 11:20:00,
2013-01-15 03:26:00,37.4,1.0,29.99,North,0,0.0,0.0,21,0.00,,,0.00,meteohub,2013-01-15 11:26:00,
2013-01-15 03:32:00,37.9,1.4,29.99,North,1,3.0,0.0,21,0.00,,,0.00,meteohub,2013-01-15 11:32:00,
2013-01-15 03:38:00,38.3,1.8,29.99,North,9,0.0,4.0,21,0.00,,,0.00,meteohub,2013-01-15 11:38:00,
2013-01-15 03:44:00,38.7,2.1,29.99,ENE,76,0.0,4.0,21,0.00,,,0.00,meteohub,2013-01-15 11:44:00,
2013-01-15 03:50:00,38.7,2.1,29.99,NNE,18,0.0,4.0,21,0.00,,,0.00,meteohub,2013-01-15 11:50:00,
2013-01-15 03:56:00,38.5,1.9,29.99,North,357,0.0,0.0,21,0.00,,,0.00,meteohub,2013-01-15 11:56:00,
2013-01-15 04:02:00,38.5,1.9,29.99,NNW,340,0.0,0.0,21,0.00,,,0.00,meteohub,2013-01-15 12:02:00,
2013-01-15 04:08:00,38.3,1.8,29.99,North,349,0.0,0.0,21,0.00,,,0.00,meteohub,2013-01-15 12:08:00,
2013-01-15 04:14:00,37.9,1.4,29.99,North,0,0.0,0.0,21,0.00,,,0.00,meteohub,2013-01-15 12:14:00,
2013-01-15 04:20:00,38.1,1.6,29.99,North,8,0.0,0.0,21,0.00,,,0.00,meteohub,2013-01-15 12:20:00,
2013-01-15 04:26:00,38.1,1.6,29.99,NNE,16,0.0,3.0,21,0.00,,,0.00,meteohub,2013-01-15 12:26:00,
2013-01-15 04:32:00,38.1,1.6,29.99,North,353,3.0,3.0,21,0.00,,,0.00,meteohub,2013-01-15 12:32:00,
2013-01-15 04:38:00,39.2,2.5,29.99,North,353,2.0,3.0,21,0.00,,,0.00,meteohub,2013-01-15 12:38:00,
2013-01-15 04:44:00,39.7,3.0,29.99,North,353,4.0,4.0,21,0.00,,,0.00,meteohub,2013-01-15 12:44:00,
2013-01-15 04:50:00,39.6,2.8,29.99,NNE,17,4.0,4.0,21,0.00,,,0.00,meteohub,2013-01-15 12:50:00,
2013-01-15 04:56:00,39.7,3.0,29.99,North,1,3.0,4.0,21,0.00,,,0.00,meteohub,2013-01-15 12:56:00,
2013-01-15 05:02:00,40.6,3.7,29.99,NNE,15,3.0,5.0,21,0.00,,,0.00,meteohub,2013-01-15 13:02:00,
2013-01-15 05:08:00,41.2,4.1,29.99,NNW,342,4.0,5.0,21,0.00,,,0.00,meteohub,2013-01-15 13:08:00,
2013-01-15 05:14:00,41.2,4.1,29.99,North,0,3.0,5.0,21,0.00,,,0.00,meteohub,2013-01-15 13:14:00,
2013-01-15 05:20:00,40.3,3.4,29.99,North,11,3.0,4.0,21,0.00,,,0.00,meteohub,2013-01-15 13:20:00,
2013-01-15 05:26:00,40.8,3.9,29.99,North,0,3.0,4.0,21,0.00,,,0.00,meteohub,2013-01-15 13:26:00,
2013-01-15 05:32:00,41.5,4.5,29.99,North,353,3.0,4.0,21,0.00,,,0.00,meteohub,2013-01-15 13:32:00,
2013-01-15 05:39:00,41.0,4.1,29.99,North,0,3.0,4.0,21,0.00,,,0.00,meteohub,2013-01-15 13:39:00,
2013-01-15 05:45:00,40.5,3.6,29.99,North,3,2.0,4.0,21,0.00,,,0.00,meteohub,2013-01-15 13:45:00,
2013-01-15 05:51:00,40.3,3.4,29.99,North,357,3.0,4.0,21,0.00,,,0.00,meteohub,2013-01-15 13:51:00,
2013-01-15 05:57:00,40.3,3.4,29.99,North,0,3.0,4.0,21,0.00,,,0.00,meteohub,2013-01-15 13:57:00,
2013-01-15 06:03:00,39.7,3.0,29.99,North,6,3.0,4.0,21,0.00,,,0.00,meteohub,2013-01-15 14:03:00,
2013-01-15 06:09:00,39.2,2.5,29.99,North,11,0.0,4.0,21,0.00,,,0.00,meteohub,2013-01-15 14:09:00,
2013-01-15 06:15:00,39.0,2.3,30.01,North,11,0.0,4.0,21,0.00,,,0.00,meteohub,2013-01-15 14:15:00,
2013-01-15 06:21:00,38.8,2.3,30.01,NNE,13,0.0,3.0,21,0.00,,,0.00,meteohub,2013-01-15 14:21:00,
2013-01-15 06:27:00,38.8,2.3,30.01,North,357,0.0,0.0,21,0.00,,,0.00,meteohub,2013-01-15 14:27:00,
2013-01-15 06:33:00,39.7,3.0,30.01,NNE,14,2.0,0.0,21,0.00,,,0.00,meteohub,2013-01-15 14:33:00,
2013-01-15 06:39:00,40.5,3.6,30.01,North,6,3.0,3.0,21,0.00,,,0.00,meteohub,2013-01-15 14:39:00,
2013-01-15 06:45:00,40.8,3.9,30.01,North,0,3.0,5.0,21,0.00,,,0.00,meteohub,2013-01-15 14:45:00,
2013-01-15 06:51:00,40.6,3.7,30.01,North,353,2.0,5.0,21,0.00,,,0.00,meteohub,2013-01-15 14:51:00,
2013-01-15 06:57:00,39.9,3.2,29.99,North,353,0.0,4.0,21,0.00,,,0.00,meteohub,2013-01-15 14:57:00,
2013-01-15 07:03:00,40.1,3.2,29.99,NE,51,0.0,4.0,21,0.00,,,0.00,meteohub,2013-01-15 15:03:00,
2013-01-15 07:09:00,41.0,4.1,29.99,South,173,0.0,3.0,21,0.00,,,0.00,meteohub,2013-01-15 15:09:00,
2013-01-15 07:15:00,41.9,4.8,30.01,SSW,193,0.0,3.0,21,0.00,,,0.00,meteohub,2013-01-15 15:15:00,
2013-01-15 07:21:00,41.0,4.1,30.01,SSW,193,0.0,3.0,21,0.00,,,0.00,meteohub,2013-01-15 15:21:00,
2013-01-15 07:27:00,41.2,4.1,30.01,NW,316,0.0,0.0,21,0.00,,,0.00,meteohub,2013-01-15 15:27:00,
2013-01-15 07:33:00,41.0,4.1,30.01,NW,322,0.0,0.0,21,0.00,,,0.00,meteohub,2013-01-15 15:33:00,
2013-01-15 07:39:00,40.5,3.6,30.01,NW,322,0.0,0.0,21,0.00,,,0.00,meteohub,2013-01-15 15:39:00,
2013-01-15 07:45:00,41.0,4.1,30.01,NW,322,0.0,0.0,21,0.00,,,0.00,meteohub,2013-01-15 15:45:00,
2013-01-15 07:51:00,41.7,4.6,30.01,NW,322,0.0,0.0,21,0.00,,,0.00,meteohub,2013-01-15 15:51:00,
2013-01-15 07:57:00,41.9,4.8,30.04,NW,322,0.0,0.0,21,0.00,,,0.00,meteohub,2013-01-15 15:57:00,
2013-01-15 08:03:00,42.3,5.2,30.04,NNW,330,0.0,0.0,21,0.00,,,0.00,meteohub,2013-01-15 16:03:00,
2013-01-15 08:09:00,43.2,4.8,30.04,NNW,338,0.0,0.0,20,0.00,,,0.00,meteohub,2013-01-15 16:09:00,
2013-01-15 08:15:00,45.0,6.3,30.04,SW,224,0.0,0.0,20,0.00,,,0.00,meteohub,2013-01-15 16:15:00,
2013-01-15 08:21:00,45.3,6.6,30.04,SW,220,0.0,0.0,20,0.00,,,0.00,meteohub,2013-01-15 16:21:00,
2013-01-15 08:27:00,45.5,6.8,30.04,SW,220,0.0,0.0,20,0.00,,,0.00,meteohub,2013-01-15 16:27:00,
2013-01-15 08:33:00,46.0,7.2,30.04,SW,220,0.0,0.0,20,0.00,,,0.00,meteohub,2013-01-15 16:33:00,
2013-01-15 08:39:00,46.0,7.2,30.04,SW,220,0.0,0.0,20,0.00,,,0.00,meteohub,2013-01-15 16:39:00,
2013-01-15 08:46:00,46.2,7.3,30.04,SW,220,0.0,0.0,20,0.00,,,0.00,meteohub,2013-01-15 16:46:00,
2013-01-15 08:52:00,47.7,7.3,30.04,West,261,0.0,0.0,19,0.00,,,0.00,meteohub,2013-01-15 16:52:00,
2013-01-15 08:58:00,48.7,8.2,30.04,NNW,344,0.0,0.0,19,0.00,,,0.00,meteohub,2013-01-15 16:58:00,
2013-01-15 09:04:00,48.2,7.9,30.04,WNW,302,4.0,0.0,19,0.00,,,0.00,meteohub,2013-01-15 17:04:00,
2013-01-15 09:10:00,48.7,8.2,30.04,WNW,290,3.0,4.0,19,0.00,,,0.00,meteohub,2013-01-15 17:10:00,
2013-01-15 09:16:00,50.2,9.5,30.04,NW,308,2.0,4.0,19,0.00,,,0.00,meteohub,2013-01-15 17:16:00,
2013-01-15 09:22:00,55.9,11.7,30.04,SSW,203,3.0,4.0,17,0.00,,,0.00,meteohub,2013-01-15 17:22:00,
2013-01-15 09:28:00,57.7,13.3,30.07,South,180,6.0,6.0,17,0.00,,,0.00,meteohub,2013-01-15 17:28:00,
2013-01-15 09:34:00,60.3,15.3,30.07,South,169,3.0,6.0,17,0.00,,,0.00,meteohub,2013-01-15 17:34:00,
2013-01-15 09:40:00,63.5,16.5,30.07,SSW,213,0.0,6.0,16,0.00,,,0.00,meteohub,2013-01-15 17:40:00,
2013-01-15 09:46:00,64.2,17.1,30.07,SSW,205,2.0,6.0,16,0.00,,,0.00,meteohub,2013-01-15 17:46:00,
2013-01-15 09:52:00,67.6,18.3,30.07,SSE,157,0.0,4.0,15,0.00,,,0.00,meteohub,2013-01-15 17:52:00,
2013-01-15 09:58:00,65.1,16.3,30.07,WSW,238,3.0,4.0,15,0.00,,,0.00,meteohub,2013-01-15 17:58:00,
2013-01-15 10:04:00,66.6,17.4,30.07,WSW,252,2.0,4.0,15,0.00,,,0.00,meteohub,2013-01-15 18:04:00,
2013-01-15 10:10:00,68.2,18.7,30.04,SSW,204,4.0,7.0,15,0.00,,,0.00,meteohub,2013-01-15 18:10:00,
2013-01-15 10:16:00,60.8,14.4,30.04,SSW,198,5.0,7.0,16,0.00,,,0.00,meteohub,2013-01-15 18:16:00,
2013-01-15 10:22:00,63.5,16.5,30.04,South,185,0.0,7.0,16,0.00,,,0.00,meteohub,2013-01-15 18:22:00,
2013-01-15 10:28:00,63.1,16.2,30.01,South,189,3.0,6.0,16,0.00,,,0.00,meteohub,2013-01-15 18:28:00,
2013-01-15 10:34:00,62.6,15.8,30.01,SW,217,6.0,6.0,16,0.00,,,0.00,meteohub,2013-01-15 18:34:00,
2013-01-15 10:40:00,70.3,18.9,30.04,South,188,3.0,6.0,14,0.00,,,0.00,meteohub,2013-01-15 18:40:00,
2013-01-15 10:46:00,65.5,16.5,30.04,SSW,200,4.0,6.0,15,0.00,,,0.00,meteohub,2013-01-15 18:46:00,
2013-01-15 10:52:00,66.7,17.6,30.04,WSW,244,6.0,6.0,15,0.00,,,0.00,meteohub,2013-01-15 18:52:00,
2013-01-15 10:58:00,69.4,19.8,30.01,West,274,0.0,6.0,15,0.00,,,0.00,meteohub,2013-01-15 18:58:00,
2013-01-15 11:04:00,64.0,16.9,30.01,SW,216,4.0,6.0,16,0.00,,,0.00,meteohub,2013-01-15 19:04:00,
2013-01-15 11:10:00,64.2,17.1,30.01,SSW,206,5.0,7.0,16,0.00,,,0.00,meteohub,2013-01-15 19:10:00,
2013-01-15 11:16:00,63.1,16.2,30.01,SSW,211,5.0,7.0,16,0.00,,,0.00,meteohub,2013-01-15 19:16:00,
2013-01-15 11:22:00,68.9,19.4,30.01,SSW,205,5.0,7.0,15,0.00,,,0.00,meteohub,2013-01-15 19:22:00,
2013-01-15 11:28:00,64.0,16.9,30.01,West,281,6.0,7.0,16,0.00,,,0.00,meteohub,2013-01-15 19:28:00,
2013-01-15 11:34:00,65.1,16.3,30.01,WSW,243,6.0,7.0,15,0.00,,,0.00,meteohub,2013-01-15 19:34:00,
2013-01-15 11:40:00,65.8,16.9,29.99,SW,224,4.0,8.0,15,0.00,,,0.00,meteohub,2013-01-15 19:40:00,
2013-01-15 11:46:00,65.8,16.9,29.99,SW,221,6.0,8.0,15,0.00,,,0.00,meteohub,2013-01-15 19:46:00,
2013-01-15 11:53:00,66.4,17.2,29.99,SSW,198,8.0,8.0,15,0.00,,,0.00,meteohub,2013-01-15 19:53:00,
2013-01-15 11:59:00,67.5,18.1,29.99,South,186,4.0,8.0,15,0.00,,,0.00,meteohub,2013-01-15 19:59:00,
2013-01-15 12:05:00,65.5,16.5,29.99,WNW,289,7.0,8.0,15,0.00,,,0.00,meteohub,2013-01-15 20:05:00,
2013-01-15 12:11:00,67.8,18.5,29.99,SW,220,6.0,8.0,15,0.00,,,0.00,meteohub,2013-01-15 20:11:00,
2013-01-15 12:17:00,70.9,19.2,29.99,West,271,5.0,8.0,14,0.00,,,0.00,meteohub,2013-01-15 20:17:00,
2013-01-15 12:23:00,68.0,18.7,29.99,WSW,258,5.0,8.0,15,0.00,,,0.00,meteohub,2013-01-15 20:23:00,
2013-01-15 12:29:00,71.2,19.6,29.96,SW,231,5.0,8.0,14,0.00,,,0.00,meteohub,2013-01-15 20:29:00,
2013-01-15 12:35:00,72.9,20.8,29.96,NW,311,3.0,6.0,14,0.00,,,0.00,meteohub,2013-01-15 20:35:00,
2013-01-15 12:41:00,68.9,19.4,29.96,SW,216,6.0,6.0,15,0.00,,,0.00,meteohub,2013-01-15 20:41:00,
2013-01-15 12:47:00,66.7,17.6,29.96,WSW,247,3.0,8.0,15,0.00,,,0.00,meteohub,2013-01-15 20:47:00,
2013-01-15 12:53:00,70.7,19.2,29.96,West,264,5.0,8.0,14,0.00,,,0.00,meteohub,2013-01-15 20:53:00,
2013-01-15 12:59:00,68.5,19.0,29.96,WSW,239,9.0,9.0,15,0.00,,,0.00,meteohub,2013-01-15 20:59:00,
2013-01-15 13:05:00,67.6,18.3,29.96,West,275,5.0,9.0,15,0.00,,,0.00,meteohub,2013-01-15 21:05:00,
2013-01-15 13:11:00,67.3,18.0,29.96,West,271,3.0,9.0,15,0.00,,,0.00,meteohub,2013-01-15 21:11:00,
2013-01-15 13:17:00,69.4,19.8,29.96,NNW,329,4.0,8.0,15,0.00,,,0.00,meteohub,2013-01-15 21:17:00,
2013-01-15 13:23:00,66.4,17.2,29.96,WNW,285,7.0,10.0,15,0.00,,,0.00,meteohub,2013-01-15 21:23:00,
2013-01-15 13:29:00,69.1,19.4,29.96,WSW,252,8.0,10.0,15,0.00,,,0.00,meteohub,2013-01-15 21:29:00,
2013-01-15 13:35:00,67.1,18.0,29.96,West,279,8.0,9.0,15,0.00,,,0.00,meteohub,2013-01-15 21:35:00,
2013-01-15 13:41:00,69.4,19.8,29.93,WSW,241,8.0,11.0,15,0.00,,,0.00,meteohub,2013-01-15 21:41:00,
2013-01-15 13:47:00,69.8,18.5,29.93,NW,306,5.0,11.0,14,0.00,,,0.00,meteohub,2013-01-15 21:47:00,
2013-01-15 13:53:00,70.0,18.5,29.93,SW,236,4.0,11.0,14,0.00,,,0.00,meteohub,2013-01-15 21:53:00,
2013-01-15 13:59:00,71.6,19.9,29.93,WSW,246,4.0,8.0,14,0.00,,,0.00,meteohub,2013-01-15 21:59:00,
2013-01-15 14:05:00,72.0,20.1,29.93,North,350,6.0,8.0,14,0.00,,,0.00,meteohub,2013-01-15 22:05:00,
2013-01-15 14:11:00,70.9,19.2,29.93,West,271,6.0,9.0,14,0.00,,,0.00,meteohub,2013-01-15 22:11:00,
2013-01-15 14:17:00,70.5,19.0,29.93,North,353,5.0,9.0,14,0.00,,,0.00,meteohub,2013-01-15 22:17:00,
2013-01-15 14:22:00,70.5,19.0,29.93,NW,317,6.0,9.0,14,0.00,,,0.00,meteohub,2013-01-15 22:22:00,
2013-01-15 14:28:00,66.9,17.8,29.93,SW,236,4.0,8.0,15,0.00,,,0.00,meteohub,2013-01-15 22:28:00,
2013-01-15 14:34:00,67.6,18.3,29.93,West,277,4.0,8.0,15,0.00,,,0.00,meteohub,2013-01-15 22:34:00,
2013-01-15 14:40:00,66.6,17.4,29.93,WNW,299,5.0,11.0,15,0.00,,,0.00,meteohub,2013-01-15 22:40:00,
2013-01-15 14:46:00,64.4,15.8,29.96,West,266,5.0,10.0,15,0.00,,,0.00,meteohub,2013-01-15 22:46:00,
2013-01-15 14:52:00,65.8,16.9,29.96,WNW,292,5.0,11.0,15,0.00,,,0.00,meteohub,2013-01-15 22:52:00,
2013-01-15 14:58:00,65.3,16.5,29.96,WSW,250,6.0,11.0,15,0.00,,,0.00,meteohub,2013-01-15 22:58:00,
2013-01-15 15:04:00,65.7,16.7,29.96,SW,234,5.0,11.0,15,0.00,,,0.00,meteohub,2013-01-15 23:04:00,
2013-01-15 15:10:00,66.4,17.2,29.96,West,275,6.0,11.0,15,0.00,,,0.00,meteohub,2013-01-15 23:10:00,
2013-01-15 15:16:00,65.5,16.5,29.96,NW,305,3.0,11.0,15,0.00,,,0.00,meteohub,2013-01-15 23:16:00,
2013-01-15 15:22:00,67.1,18.0,29.96,NNW,345,6.0,11.0,15,0.00,,,0.00,meteohub,2013-01-15 23:22:00,
2013-01-15 15:28:00,66.4,17.2,29.96,WNW,295,8.0,10.0,15,0.00,,,0.00,meteohub,2013-01-15 23:28:00,
2013-01-15 15:34:00,64.4,15.8,29.96,WNW,302,3.0,10.0,15,0.00,,,0.00,meteohub,2013-01-15 23:34:00,
2013-01-15 15:40:00,65.7,16.7,29.96,West,259,5.0,10.0,15,0.00,,,0.00,meteohub,2013-01-15 23:40:00,
2013-01-15 15:46:00,64.8,16.0,29.96,WNW,287,4.0,10.0,15,0.00,,,0.00,meteohub,2013-01-15 23:46:00,
2013-01-15 15:52:00,64.9,16.2,29.96,West,266,5.0,10.0,15,0.00,,,0.00,meteohub,2013-01-15 23:52:00,
2013-01-15 15:58:00,63.1,16.2,29.96,West,280,4.0,10.0,16,0.00,,,0.00,meteohub,2013-01-15 23:58:00,
2013-01-15 16:04:00,66.0,17.1,29.96,West,259,4.0,10.0,15,0.00,,,0.00,meteohub,2013-01-16 00:04:00,
2013-01-15 16:10:00,65.3,16.5,29.93,WNW,292,3.0,7.0,15,0.00,,,0.00,meteohub,2013-01-16 00:10:00,
2013-01-15 16:16:00,63.7,16.7,29.93,WSW,239,5.0,7.0,16,0.00,,,0.00,meteohub,2013-01-16 00:16:00,
2013-01-15 16:22:00,62.6,15.8,29.93,NW,310,6.0,7.0,16,0.00,,,0.00,meteohub,2013-01-16 00:22:00,
2013-01-15 16:28:00,62.1,15.3,29.96,WNW,299,6.0,8.0,16,0.00,,,0.00,meteohub,2013-01-16 00:28:00,
2013-01-15 16:34:00,61.9,15.3,29.96,WNW,287,4.0,8.0,16,0.00,,,0.00,meteohub,2013-01-16 00:34:00,
2013-01-15 16:40:00,61.0,14.5,29.96,NW,311,3.0,8.0,16,0.00,,,0.00,meteohub,2013-01-16 00:40:00,
2013-01-15 16:46:00,60.1,15.1,29.96,NW,315,0.0,8.0,17,0.00,,,0.00,meteohub,2013-01-16 00:46:00,
2013-01-15 16:52:00,58.6,14.0,29.96,WNW,298,3.0,6.0,17,0.00,,,0.00,meteohub,2013-01-16 00:52:00,
2013-01-15 16:58:00,56.3,12.0,29.96,WNW,287,6.0,6.0,17,0.00,,,0.00,meteohub,2013-01-16 00:58:00,
2013-01-15 17:04:00,54.9,14.5,29.96,NW,307,5.0,8.0,20,0.00,,,0.00,meteohub,2013-01-16 01:04:00,
2013-01-15 17:10:00,53.8,13.6,29.96,NNW,344,4.0,8.0,20,0.00,,,0.00,meteohub,2013-01-16 01:10:00,
2013-01-15 17:16:00,53.1,14.2,29.96,NNW,341,4.0,8.0,21,0.00,,,0.00,meteohub,2013-01-16 01:16:00,
2013-01-15 17:23:00,52.5,13.6,29.96,West,280,5.0,6.0,21,0.00,,,0.00,meteohub,2013-01-16 01:23:00,
2013-01-15 17:29:00,52.5,13.6,29.96,NW,309,0.0,6.0,21,0.00,,,0.00,meteohub,2013-01-16 01:29:00,
2013-01-15 17:35:00,51.8,15.1,29.96,NW,326,4.0,6.0,23,0.00,,,0.00,meteohub,2013-01-16 01:35:00,
2013-01-15 17:41:00,51.6,16.0,29.96,NW,305,0.0,6.0,24,0.00,,,0.00,meteohub,2013-01-16 01:41:00,
2013-01-15 17:47:00,51.4,15.8,29.96,NNW,328,0.0,4.0,24,0.00,,,0.00,meteohub,2013-01-16 01:47:00,
2013-01-15 17:53:00,51.4,17.6,29.96,SSW,205,0.0,4.0,26,0.00,,,0.00,meteohub,2013-01-16 01:53:00,
2013-01-15 17:59:00,50.7,17.1,29.96,SW,218,0.0,0.0,26,0.00,,,0.00,meteohub,2013-01-16 01:59:00,
2013-01-15 18:05:00,49.8,17.2,29.96,SW,218,0.0,0.0,27,0.00,,,0.00,meteohub,2013-01-16 02:05:00,
2013-01-15 18:11:00,49.5,16.9,29.99,WSW,251,0.0,0.0,27,0.00,,,0.00,meteohub,2013-01-16 02:11:00,
2013-01-15 18:17:00,50.0,17.2,29.99,North,0,3.0,0.0,27,0.00,,,0.00,meteohub,2013-01-16 02:17:00,
2013-01-15 18:23:00,50.0,16.5,29.99,NNW,332,3.0,4.0,26,0.00,,,0.00,meteohub,2013-01-16 02:23:00,
2013-01-15 18:29:00,50.4,14.9,29.96,North,353,4.0,5.0,24,0.00,,,0.00,meteohub,2013-01-16 02:29:00,
2013-01-15 18:35:00,50.5,15.1,29.96,North,0,4.0,6.0,24,0.00,,,0.00,meteohub,2013-01-16 02:35:00,
2013-01-15 18:41:00,50.7,12.2,29.96,NNW,343,5.0,6.0,21,0.00,,,0.00,meteohub,2013-01-16 02:41:00,
2013-01-15 18:47:00,50.7,12.2,29.96,NNW,338,4.0,6.0,21,0.00,,,0.00,meteohub,2013-01-16 02:47:00,
2013-01-15 18:53:00,51.4,12.7,29.96,NNW,342,4.0,6.0,21,0.00,,,0.00,meteohub,2013-01-16 02:53:00,
2013-01-15 18:59:00,50.7,12.2,29.96,NNW,330,3.0,8.0,21,0.00,,,0.00,meteohub,2013-01-16 02:59:00,
2013-01-15 19:05:00,51.3,12.6,29.96,South,185,3.0,8.0,21,0.00,,,0.00,meteohub,2013-01-16 03:05:00,
2013-01-15 19:11:00,50.0,11.7,29.99,South,169,0.0,6.0,21,0.00,,,0.00,meteohub,2013-01-16 03:11:00,
2013-01-15 19:17:00,48.7,10.6,29.99,SE,140,0.0,4.0,21,0.00,,,0.00,meteohub,2013-01-16 03:17:00,
2013-01-15 19:23:00,48.0,10.9,29.99,North,4,0.0,3.0,22,0.00,,,0.00,meteohub,2013-01-16 03:23:00,
2013-01-15 19:29:00,47.7,12.6,29.99,NE,50,0.0,0.0,24,0.00,,,0.00,meteohub,2013-01-16 03:29:00,
2013-01-15 19:35:00,47.3,12.4,29.99,NE,50,0.0,0.0,24,0.00,,,0.00,meteohub,2013-01-16 03:35:00,
2013-01-15 19:41:00,48.0,12.9,29.99,ESE,110,4.0,5.0,24,0.00,,,0.00,meteohub,2013-01-16 03:41:00,
2013-01-15 19:47:00,48.0,12.9,29.99,East,101,0.0,5.0,24,0.00,,,0.00,meteohub,2013-01-16 03:47:00,
2013-01-15 19:53:00,48.6,13.5,29.99,South,171,3.0,5.0,24,0.00,,,0.00,meteohub,2013-01-16 03:53:00,
2013-01-15 19:59:00,47.8,12.7,29.99,ESE,110,0.0,5.0,24,0.00,,,0.00,meteohub,2013-01-16 03:59:00,
2013-01-15 20:05:00,47.3,12.4,29.99,ENE,69,0.0,4.0,24,0.00,,,0.00,meteohub,2013-01-16 04:05:00,
2013-01-15 20:12:00,46.9,12.0,29.99,ENE,69,0.0,4.0,24,0.00,,,0.00,meteohub,2013-01-16 04:12:00,
2013-01-15 20:18:00,46.4,11.5,29.99,ENE,66,0.0,4.0,24,0.00,,,0.00,meteohub,2013-01-16 04:18:00,
2013-01-15 20:24:00,46.2,12.4,29.99,NE,55,0.0,0.0,25,0.00,,,0.00,meteohub,2013-01-16 04:24:00,
2013-01-15 20:30:00,45.9,12.0,29.99,NE,52,0.0,0.0,25,0.00,,,0.00,meteohub,2013-01-16 04:30:00,
2013-01-15 20:36:00,45.9,12.0,29.99,NE,51,0.0,0.0,25,0.00,,,0.00,meteohub,2013-01-16 04:36:00,
2013-01-15 20:42:00,45.9,12.0,29.99,NE,50,0.0,0.0,25,0.00,,,0.00,meteohub,2013-01-16 04:42:00,
2013-01-15 20:48:00,45.7,11.8,29.99,NE,50,0.0,0.0,25,0.00,,,0.00,meteohub,2013-01-16 04:48:00,
2013-01-15 20:54:00,46.0,12.2,29.99,North,357,0.0,0.0,25,0.00,,,0.00,meteohub,2013-01-16 04:54:00,
2013-01-15 21:00:00,45.7,11.8,29.99,NNW,346,0.0,0.0,25,0.00,,,0.00,meteohub,2013-01-16 05:00:00,
2013-01-15 21:02:00,46.2,12.4,29.99,North,353,0.0,0.0,25,0.00,,,0.00,meteohub,2013-01-16 05:02:00,
2013-01-15 21:08:00,45.9,12.0,29.99,North,6,0.0,0.0,25,0.00,,,0.00,meteohub,2013-01-16 05:08:00,
2013-01-15 21:14:00,46.2,12.4,29.99,ESE,110,0.0,0.0,25,0.00,,,0.00,meteohub,2013-01-16 05:14:00,
2013-01-15 21:17:00,46.6,11.7,29.99,ESE,108,4.0,0.0,24,0.00,,,0.00,meteohub,2013-01-16 05:17:00,
2013-01-15 21:22:00,46.6,11.7,29.99,ENE,65,3.0,6.0,24,0.00,,,0.00,meteohub,2013-01-16 05:22:00,
2013-01-15 21:28:00,46.4,11.5,29.96,ENE,74,0.0,6.0,24,0.00,,,0.00,meteohub,2013-01-16 05:28:00,
2013-01-15 21:34:00,46.4,11.5,29.96,ENE,69,0.0,6.0,24,0.00,,,0.00,meteohub,2013-01-16 05:34:00,
2013-01-15 21:40:00,46.2,12.4,29.96,NE,36,2.0,5.0,25,0.00,,,0.00,meteohub,2013-01-16 05:40:00,
2013-01-15 21:46:00,45.9,12.0,29.96,NNE,31,0.0,4.0,25,0.00,,,0.00,meteohub,2013-01-16 05:46:00,
2013-01-15 21:52:00,45.9,12.0,29.96,NNE,31,0.0,3.0,25,0.00,,,0.00,meteohub,2013-01-16 05:52:00,
2013-01-15 21:58:00,45.5,11.7,29.96,NNE,31,0.0,3.0,25,0.00,,,0.00,meteohub,2013-01-16 05:58:00,
2013-01-15 22:04:00,45.9,12.0,29.96,NNW,335,3.0,3.0,25,0.00,,,0.00,meteohub,2013-01-16 06:04:00,
2013-01-15 22:10:00,45.7,11.8,29.99,NNW,344,0.0,4.0,25,0.00,,,0.00,meteohub,2013-01-16 06:10:00,
2013-01-15 22:16:00,45.7,11.8,29.99,NNE,16,0.0,4.0,25,0.00,,,0.00,meteohub,2013-01-16 06:16:00,
2013-01-15 22:22:00,45.5,11.7,29.99,ESE,110,0.0,4.0,25,0.00,,,0.00,meteohub,2013-01-16 06:22:00,
2013-01-15 22:28:00,45.9,12.0,29.99,ESE,111,0.0,0.0,25,0.00,,,0.00,meteohub,2013-01-16 06:28:00,
2013-01-15 22:35:00,45.9,12.0,29.99,North,11,4.0,0.0,25,0.00,,,0.00,meteohub,2013-01-16 06:35:00,
2013-01-15 22:41:00,46.0,12.2,29.96,North,0,3.0,5.0,25,0.00,,,0.00,meteohub,2013-01-16 06:41:00,
2013-01-15 22:47:00,47.1,12.2,29.96,North,0,7.0,7.0,24,0.00,,,0.00,meteohub,2013-01-16 06:47:00,
2013-01-15 22:53:00,47.3,12.4,29.96,North,357,4.0,7.0,24,0.00,,,0.00,meteohub,2013-01-16 06:53:00,
2013-01-15 22:59:00,47.3,10.4,29.96,North,11,4.0,7.0,22,0.00,,,0.00,meteohub,2013-01-16 06:59:00,
2013-01-15 23:05:00,47.7,10.6,29.96,SE,132,2.0,7.0,22,0.00,,,0.00,meteohub,2013-01-16 07:05:00,
2013-01-15 23:11:00,48.7,10.6,29.96,SSE,149,3.0,6.0,21,0.00,,,0.00,meteohub,2013-01-16 07:11:00,
2013-01-15 23:17:00,49.3,10.9,29.96,NNE,28,4.0,5.0,21,0.00,,,0.00,meteohub,2013-01-16 07:17:00,
2013-01-15 23:23:00,47.5,10.6,29.96,North,353,2.0,4.0,22,0.00,,,0.00,meteohub,2013-01-16 07:23:00,
2013-01-15 23:29:00,46.6,9.7,29.96,NNW,327,0.0,4.0,22,0.00,,,0.00,meteohub,2013-01-16 07:29:00,
2013-01-15 23:35:00,46.2,12.4,29.96,East,83,0.0,3.0,25,0.00,,,0.00,meteohub,2013-01-16 07:35:00,
2013-01-15 23:41:00,45.9,12.0,29.96,NNW,330,0.0,3.0,25,0.00,,,0.00,meteohub,2013-01-16 07:41:00,
2013-01-15 23:47:00,45.7,11.8,29.96,NNW,346,3.0,3.0,25,0.00,,,0.00,meteohub,2013-01-16 07:47:00,
2013-01-15 23:53:00,45.1,11.5,29.96,North,357,3.0,4.0,25,0.00,,,0.00,meteohub,2013-01-16 07:53:00,
2013-01-15 23:59:00,45.0,11.3,29.96,NW,305,0.0,4.0,25,0.00,,,0.00,meteohub,2013-01-16 07:59:00,